| time (UTC) | temp F | wind direction | speed MPH | gust MPH | rain 1hr in | rain 24hr in | rain mn in | humidity % | barometer mb |
| 20260903220040 | 84 | 178 | 6.0 | 10.0 | 0.00 | 0.22 | 0.22 | 74 | 1009.7 |
| 20260903214546 | 84 | 169 | 4.0 | 9.0 | 0.00 | 0.22 | 0.22 | 75 | 1009.9 |
| 20260903213045 | 84 | 197 | 8.0 | 16.0 | 0.00 | 0.22 | 0.22 | 73 | 1010.0 |
| 20260903211636 | 84 | 204 | 6.0 | 11.0 | 0.00 | 0.22 | 0.22 | 76 | 1010.0 |
| 20260903210032 | 83 | 186 | 6.0 | 12.0 | 0.00 | 0.22 | 0.22 | 75 | 1010.0 |
| 20260903204629 | 83 | 136 | 6.0 | 11.0 | 0.00 | 0.22 | 0.22 | 79 | 1010.3 |
| 20260903203025 | 82 | 130 | 8.0 | 12.0 | 0.00 | 0.22 | 0.22 | 81 | 1010.4 |
| 20260903201531 | 80 | 134 | 7.0 | 12.0 | 0.00 | 0.22 | 0.22 | 83 | 1010.3 |
| 20260903200018 | 79 | 173 | 4.0 | 10.0 | 0.00 | 0.22 | 0.22 | 87 | 1010.5 |
| 20260903194518 | 77 | 178 | 6.0 | 11.0 | 0.00 | 0.22 | 0.22 | 86 | 1010.6 |
| 20260903193014 | 76 | 157 | 8.0 | 10.0 | 0.00 | 0.22 | 0.22 | 85 | 1010.5 |
| 20260903191514 | 76 | 190 | 6.0 | 14.0 | 0.00 | 0.22 | 0.22 | 85 | 1010.8 |
| 20260903190014 | 77 | 202 | 7.0 | 12.0 | 0.00 | 0.22 | 0.22 | 83 | 1010.8 |
| 20260903184512 | 77 | 188 | 7.0 | 14.0 | 0.00 | 0.22 | 0.22 | 82 | 1011.1 |
| 20260903183011 | 77 | 188 | 6.0 | 11.0 | 0.00 | 0.22 | 0.22 | 82 | 1011.0 |
| 20260903181508 | 77 | 154 | 3.0 | 10.0 | 0.00 | 0.22 | 0.22 | 83 | 1010.6 |
| 20260903180009 | 75 | 169 | 4.0 | 11.0 | 0.00 | 0.22 | 0.22 | 85 | 1010.9 |
| 20260903174600 | 75 | 187 | 6.0 | 10.0 | 0.00 | 0.22 | 0.22 | 85 | 1011.7 |
| 20260903173058 | 74 | 224 | 6.0 | 12.0 | 0.00 | 0.22 | 0.22 | 86 | 1012.0 |
| 20260903171557 | 74 | 172 | 6.0 | 11.0 | 0.00 | 0.22 | 0.22 | 87 | 1011.5 |
| 20260903170103 | 73 | 157 | 8.0 | 16.0 | 0.00 | 0.22 | 0.22 | 86 | 1011.9 |
| 20260903164554 | 74 | 209 | 6.0 | 14.0 | 0.00 | 0.22 | 0.22 | 86 | 1012.6 |
| 20260903163053 | 74 | 187 | 6.0 | 10.0 | 0.00 | 0.22 | 0.22 | 85 | 1012.7 |
| 20260903161549 | 73 | 171 | 5.0 | 8.0 | 0.00 | 0.22 | 0.22 | 84 | 1012.4 |
| 20260903160046 | 73 | 155 | 4.0 | 7.0 | 0.00 | 0.22 | 0.22 | 85 | 1012.6 |
| 20260903154646 | 73 | 153 | 3.0 | 6.0 | 0.00 | 0.22 | 0.22 | 85 | 1012.6 |
| 20260903153056 | 73 | 223 | 1.0 | 4.0 | 0.00 | 0.22 | 0.22 | 88 | 1012.8 |
| 20260903151646 | 73 | 338 | 1.0 | 2.0 | 0.00 | 0.22 | 0.22 | 88 | 1012.8 |
| 20260903150053 | 72 | 338 | 1.0 | 4.0 | 0.00 | 0.22 | 0.22 | 85 | 1013.1 |
| 20260903144544 | 72 | 136 | 2.0 | 4.0 | 0.00 | 0.22 | 0.22 | 85 | 1012.7 |
| 20260903143053 | 72 | 138 | 7.0 | 13.0 | 0.00 | 0.22 | 0.22 | 83 | 1011.6 |
| 20260903141544 | 72 | 113 | 7.0 | 10.0 | 0.00 | 0.22 | 0.22 | 86 | 1011.5 |
| 20260903140039 | 72 | 116 | 5.0 | 8.0 | 0.00 | 0.22 | 0.22 | 87 | 1011.8 |
| 20260903134539 | 71 | 105 | 4.0 | 8.0 | 0.00 | 0.22 | 0.22 | 88 | 1012.4 |
| 20260903133038 | 71 | 105 | 5.0 | 9.0 | 0.00 | 0.22 | 0.22 | 89 | 1012.5 |
| 20260903131536 | 70 | 106 | 4.0 | 7.0 | 0.00 | 0.22 | 0.22 | 90 | 1012.8 |
| 20260903130033 | 70 | 92 | 2.0 | 8.0 | 0.01 | 0.22 | 0.22 | 89 | 1013.1 |
| 20260903124533 | 70 | 103 | 7.0 | 12.0 | 0.02 | 0.22 | 0.22 | 89 | 1012.4 |
| 20260903123030 | 70 | 85 | 5.0 | 9.0 | 0.02 | 0.22 | 0.22 | 90 | 1013.3 |
| 20260903121525 | 70 | 96 | 5.0 | 8.0 | 0.02 | 0.22 | 0.22 | 91 | 1013.8 |
| 20260903120025 | 70 | 88 | 2.0 | 6.0 | 0.01 | 0.21 | 0.21 | 89 | 1014.3 |
| 20260903114527 | 70 | 336 | 8.0 | 13.0 | 0.00 | 0.20 | 0.20 | 89 | 1014.5 |
| 20260903113028 | 69 | 13 | 6.0 | 8.0 | 0.07 | 0.20 | 0.20 | 91 | 1014.7 |
| 20260903111530 | 69 | 118 | 6.0 | 8.0 | 0.17 | 0.20 | 0.20 | 92 | 1013.7 |
| 20260903110020 | 69 | 202 | 1.0 | 5.0 | 0.19 | 0.20 | 0.20 | 91 | 1014.0 |
| 20260903104519 | 70 | 289 | 3.0 | 13.0 | 0.20 | 0.23 | 0.20 | 89 | 1013.9 |
| 20260903103014 | 71 | 286 | 15.0 | 22.0 | 0.12 | 0.15 | 0.12 | 87 | 1014.6 |
| 20260903101514 | 73 | 252 | 8.0 | 15.0 | 0.03 | 0.06 | 0.03 | 91 | 1013.5 |
| 20260903100007 | 73 | 240 | 5.0 | 9.0 | 0.01 | 0.04 | 0.01 | 91 | 1013.3 |
| 20260903094505 | 73 | 288 | 1.0 | 4.0 | 0.00 | 0.07 | 0.00 | 90 | 1012.0 |
| 20260903093008 | 74 | 318 | 1.0 | 9.0 | 0.00 | 0.07 | 0.00 | 90 | 1011.7 |
| 20260903091503 | 73 | 193 | 4.0 | 8.0 | 0.00 | 0.07 | 0.00 | 93 | 1012.0 |
| 20260903090001 | 73 | 238 | 1.0 | 4.0 | 0.00 | 0.07 | 0.00 | 93 | 1011.4 |
| 20260903084600 | 72 | 238 | 2.0 | 6.0 | 0.00 | 0.07 | 0.00 | 93 | 1011.6 |
| 20260903083106 | 72 | 209 | 2.0 | 3.0 | 0.00 | 0.07 | 0.00 | 92 | 1011.5 |
| 20260903081617 | 73 | 209 | 2.0 | 4.0 | 0.00 | 0.07 | 0.00 | 93 | 1011.4 |
| 20260903080056 | 73 | 189 | 1.0 | 3.0 | 0.00 | 0.07 | 0.00 | 92 | 1011.2 |
| 20260903074557 | 73 | 189 | 1.0 | 3.0 | 0.00 | 0.07 | 0.00 | 92 | 1011.1 |
| 20260903073056 | 73 | 188 | 2.0 | 4.0 | 0.00 | 0.07 | 0.00 | 92 | 1011.0 |
| 20260903071557 | 73 | 186 | 1.0 | 3.0 | 0.00 | 0.07 | 0.00 | 91 | 1010.9 |
| 20260903070053 | 73 | 184 | 1.0 | 4.0 | 0.00 | 0.07 | 0.00 | 91 | 1011.1 |
| 20260903064652 | 73 | 185 | 2.0 | 4.0 | 0.00 | 0.07 | 0.00 | 90 | 1011.1 |
| 20260903063053 | 74 | 186 | 2.0 | 5.0 | 0.00 | 0.07 | 0.00 | 90 | 1011.2 |
| 20260903061552 | 74 | 182 | 3.0 | 7.0 | 0.00 | 0.07 | 0.00 | 90 | 1011.3 |
| 20260903060047 | 74 | 164 | 4.0 | 6.0 | 0.00 | 0.07 | 0.00 | 90 | 1011.2 |
| 20260903054542 | 74 | 159 | 4.0 | 8.0 | 0.00 | 0.07 | 0.00 | 90 | 1011.3 |
| 20260903053039 | 73 | 161 | 3.0 | 8.0 | 0.00 | 0.07 | 0.00 | 92 | 1011.2 |
| 20260903051536 | 72 | 124 | 1.0 | 3.0 | 0.00 | 0.07 | 0.00 | 92 | 1011.3 |
| 20260903050042 | 72 | 124 | 2.0 | 4.0 | 0.00 | 0.07 | 0.00 | 92 | 1011.3 |
| 20260903044532 | 72 | 125 | 3.0 | 6.0 | 0.00 | 0.07 | 0.07 | 92 | 1011.3 |
| 20260903043032 | 72 | 115 | 3.0 | 6.0 | 0.00 | 0.07 | 0.07 | 91 | 1011.4 |
| 20260903041539 | 72 | 111 | 3.0 | 6.0 | 0.00 | 0.07 | 0.07 | 91 | 1011.5 |
| 20260903040031 | 72 | 96 | 3.0 | 6.0 | 0.00 | 0.07 | 0.07 | 90 | 1011.5 |
| 20260903034535 | 73 | 105 | 4.0 | 7.0 | 0.00 | 0.09 | 0.07 | 90 | 1011.5 |
| 20260903033032 | 73 | 101 | 4.0 | 7.0 | 0.00 | 0.09 | 0.07 | 90 | 1011.7 |
| 20260903031535 | 73 | 98 | 3.0 | 7.0 | 0.00 | 0.09 | 0.07 | 90 | 1011.7 |
| 20260903030030 | 73 | 105 | 4.0 | 7.0 | 0.00 | 0.09 | 0.07 | 90 | 1011.7 |
| 20260903024528 | 73 | 123 | 3.0 | 4.0 | 0.00 | 0.09 | 0.07 | 90 | 1011.7 |
| 20260903023031 | 73 | 137 | 3.0 | 5.0 | 0.00 | 0.09 | 0.07 | 90 | 1011.7 |
| 20260903021527 | 73 | 158 | 3.0 | 6.0 | 0.00 | 0.09 | 0.07 | 91 | 1011.7 |
| 20260903020053 | 73 | 158 | 2.0 | 5.0 | 0.00 | 0.09 | 0.07 | 88 | 1011.5 |
| 20260903014526 | 74 | 158 | 3.0 | 6.0 | 0.00 | 0.09 | 0.07 | 87 | 1011.5 |
| 20260903013026 | 74 | 163 | 3.0 | 6.0 | 0.00 | 0.09 | 0.07 | 86 | 1011.5 |
| 20260903011525 | 74 | 189 | 0.0 | 2.0 | 0.00 | 0.09 | 0.07 | 84 | 1011.3 |
| 20260903010024 | 75 | 189 | 1.0 | 2.0 | 0.00 | 0.09 | 0.07 | 82 | 1011.2 |
| 20260903004525 | 77 | 189 | 1.0 | 4.0 | 0.00 | 0.09 | 0.07 | 79 | 1011.2 |
| 20260903003023 | 79 | 189 | 1.0 | 3.0 | 0.00 | 0.09 | 0.07 | 76 | 1011.2 |
| 20260903001529 | 81 | 189 | 1.0 | 4.0 | 0.00 | 0.09 | 0.07 | 78 | 1011.1 |
| 20260903000022 | 82 | 189 | 1.0 | 2.0 | 0.00 | 0.09 | 0.07 | 76 | 1011.1 |
| 20260902234521 | 83 | 189 | 1.0 | 5.0 | 0.00 | 0.09 | 0.07 | 73 | 1011.2 |
| 20260902233021 | 85 | 215 | 1.0 | 2.0 | 0.00 | 0.09 | 0.07 | 72 | 1011.2 |
| 20260902231520 | 85 | 215 | 2.0 | 3.0 | 0.00 | 0.09 | 0.07 | 72 | 1011.3 |
| 20260902230019 | 85 | 215 | 1.0 | 5.0 | 0.00 | 0.09 | 0.07 | 71 | 1011.4 |
| 20260902224519 | 85 | 215 | 3.0 | 6.0 | 0.00 | 0.09 | 0.07 | 68 | 1011.5 |
| 20260902223018 | 85 | 229 | 4.0 | 6.0 | 0.00 | 0.09 | 0.07 | 67 | 1011.5 |
| 20260902221533 | 86 | 200 | 3.0 | 6.0 | 0.00 | 0.09 | 0.07 | 66 | 1011.4 |